RYR61LP LEPA-LEZL

Flight info

Callsign RYR61LP
Flight time 1h 12m
Altitude 35000
Route EPAMA N733 VLC M985 MAMIS
Aircraft B738/M-SDE2E3FGHIRWXY/LB1

Departure

Time 2026-04-25 17:35
Airport Palma de Mallorca Airport (LEPA)

Arrival

Time 2026-04-25 18:47
Airport Seville Airport (LEZL)
Time Latitude Longitude Altitude Speed Heading
2026-04-25 17:10 39.55002 2.72670 28 ft 0 kts 148°
2026-04-25 17:10 39.55003 2.72669 28 ft 0 kts 148°
2026-04-25 17:26 39.55013 2.72661 29 ft 4 kts 148°
2026-04-25 17:27 39.55031 2.72647 29 ft 4 kts 144°
2026-04-25 17:27 39.55047 2.72623 29 ft 4 kts 94°
2026-04-25 17:27 39.55042 2.72594 29 ft 3 kts 64°
2026-04-25 17:27 39.55038 2.72583 29 ft 4 kts 64°
2026-04-25 17:28 39.55033 2.72570 29 ft 0 kts 64°
2026-04-25 17:29 39.55034 2.72571 29 ft 0 kts 64°
2026-04-25 17:30 39.55037 2.72579 29 ft 3 kts 64°
2026-04-25 17:30 39.55069 2.72656 29 ft 11 kts 59°
2026-04-25 17:30 39.55122 2.72765 29 ft 17 kts 56°
2026-04-25 17:30 39.55192 2.72914 29 ft 22 kts 59°
2026-04-25 17:31 39.55279 2.73095 29 ft 25 kts 59°
2026-04-25 17:31 39.55367 2.73281 29 ft 23 kts 59°
2026-04-25 17:31 39.55450 2.73456 29 ft 22 kts 58°
2026-04-25 17:31 39.55506 2.73562 29 ft 7 kts 38°
2026-04-25 17:32 39.55549 2.73558 29 ft 7 kts 325°
2026-04-25 17:32 39.55593 2.73521 29 ft 9 kts 326°
2026-04-25 17:32 39.55661 2.73521 29 ft 13 kts 41°
2026-04-25 17:32 39.55719 2.73632 29 ft 17 kts 58°
2026-04-25 17:33 39.55791 2.73780 29 ft 21 kts 59°
2026-04-25 17:33 39.55873 2.73958 29 ft 25 kts 57°
2026-04-25 17:33 39.55967 2.74156 29 ft 26 kts 59°
2026-04-25 17:33 39.56058 2.74349 29 ft 24 kts 61°
2026-04-25 17:34 39.56173 2.74445 29 ft 22 kts 334°
2026-04-25 17:34 39.56245 2.74303 29 ft 21 kts 253°
2026-04-25 17:34 39.56156 2.74108 29 ft 43 kts 238°
2026-04-25 17:34 39.55887 2.73535 29 ft 104 kts 238°
2026-04-25 17:35 39.55413 2.72539 31 ft 153 kts 238°
2026-04-25 17:35 39.54826 2.71283 391 ft 165 kts 238°
2026-04-25 17:35 39.54225 2.70045 1077 ft 164 kts 236°
2026-04-25 17:35 39.53592 2.68810 1745 ft 162 kts 236°
2026-04-25 17:36 39.52932 2.67508 1987 ft 186 kts 237°
2026-04-25 17:36 39.52200 2.66026 2289 ft 202 kts 236°
2026-04-25 17:36 39.51436 2.64434 2611 ft 215 kts 237°
2026-04-25 17:36 39.50595 2.62755 2901 ft 232 kts 235°
2026-04-25 17:37 39.49636 2.60925 3116 ft 253 kts 234°
2026-04-25 17:37 39.48680 2.59097 3987 ft 242 kts 235°
2026-04-25 17:37 39.47750 2.57303 4879 ft 233 kts 235°
2026-04-25 17:37 39.46861 2.55576 5504 ft 235 kts 236°
2026-04-25 17:38 39.45957 2.53815 6095 ft 236 kts 236°
2026-04-25 17:38 39.45650 2.53216 6306 ft 236 kts 236°
2026-04-25 17:38 39.45071 2.49675 6711 ft 267 kts 279°
2026-04-25 17:38 39.45422 2.47251 7073 ft 280 kts 281°
2026-04-25 17:39 39.45803 2.44758 7659 ft 284 kts 281°
2026-04-25 17:39 39.46186 2.42234 8298 ft 288 kts 281°
2026-04-25 17:39 39.46567 2.39676 8913 ft 292 kts 281°
2026-04-25 17:39 39.46947 2.37075 9571 ft 295 kts 281°
2026-04-25 17:40 39.47323 2.34452 10233 ft 298 kts 281°
2026-04-25 17:40 39.47708 2.31747 10535 ft 316 kts 281°
2026-04-25 17:40 39.47981 2.29812 10648 ft 330 kts 281°
2026-04-25 17:40 39.48402 2.26804 10906 ft 346 kts 281°
2026-04-25 17:41 39.48833 2.23702 11451 ft 353 kts 281°
2026-04-25 17:41 39.49265 2.20568 12102 ft 355 kts 282°
2026-04-25 17:41 39.49693 2.17451 12756 ft 358 kts 282°
2026-04-25 17:41 39.50130 2.14266 13386 ft 362 kts 282°
2026-04-25 17:42 39.50571 2.11042 14034 ft 365 kts 282°
2026-04-25 17:42 39.51015 2.07791 14704 ft 368 kts 281°
2026-04-25 17:42 39.51460 2.04519 15384 ft 371 kts 281°
2026-04-25 17:42 39.51909 2.01212 16040 ft 374 kts 281°
2026-04-25 17:43 39.52360 1.97877 16656 ft 378 kts 281°
2026-04-25 17:43 39.52813 1.94512 17243 ft 381 kts 281°
2026-04-25 17:43 39.53273 1.91111 17827 ft 385 kts 281°
2026-04-25 17:43 39.53735 1.87677 18418 ft 388 kts 281°
2026-04-25 17:44 39.54198 1.84223 18986 ft 391 kts 281°
2026-04-25 17:44 39.54665 1.80737 19557 ft 394 kts 281°
2026-04-25 17:44 39.55133 1.77232 20111 ft 396 kts 281°
2026-04-25 17:44 39.55605 1.73699 20634 ft 400 kts 281°
2026-04-25 17:45 39.56078 1.70138 21164 ft 402 kts 281°
2026-04-25 17:45 39.56399 1.67722 21518 ft 404 kts 281°
2026-04-25 17:45 39.57031 1.62953 22165 ft 407 kts 281°
2026-04-25 17:45 39.57510 1.59328 22656 ft 409 kts 281°
2026-04-25 17:46 39.57989 1.55683 23116 ft 412 kts 281°
2026-04-25 17:46 39.58472 1.52005 23561 ft 415 kts 280°
2026-04-25 17:46 39.58957 1.48307 24012 ft 417 kts 280°
2026-04-25 17:46 39.59443 1.44594 24445 ft 420 kts 280°
2026-04-25 17:47 39.59931 1.40849 24863 ft 422 kts 280°
2026-04-25 17:47 39.60341 1.37072 25267 ft 425 kts 272°
2026-04-25 17:47 39.60263 1.33239 25671 ft 427 kts 266°
2026-04-25 17:47 39.60018 1.29389 26049 ft 429 kts 265°
2026-04-25 17:48 39.59460 1.21645 26792 ft 434 kts 265°
2026-04-25 17:48 39.59200 1.17742 27157 ft 436 kts 265°
2026-04-25 17:48 39.58956 1.13821 27525 ft 437 kts 265°
2026-04-25 17:49 39.58724 1.09887 27844 ft 439 kts 265°
2026-04-25 17:49 39.58495 1.05929 28157 ft 441 kts 265°
2026-04-25 17:49 39.58267 1.01959 28486 ft 443 kts 265°
2026-04-25 17:49 39.58038 0.97969 28811 ft 444 kts 265°
2026-04-25 17:50 39.57807 0.93962 29095 ft 447 kts 265°
2026-04-25 17:50 39.57574 0.89942 29392 ft 448 kts 265°
2026-04-25 17:50 39.57336 0.85904 29680 ft 450 kts 265°
2026-04-25 17:50 39.57094 0.81859 29956 ft 451 kts 265°
2026-04-25 17:51 39.56850 0.77798 30226 ft 453 kts 265°
2026-04-25 17:51 39.56603 0.73723 30483 ft 454 kts 265°
2026-04-25 17:51 39.56358 0.69642 30809 ft 454 kts 265°
2026-04-25 17:51 39.56116 0.65630 31182 ft 452 kts 265°
2026-04-25 17:52 39.55870 0.61579 31557 ft 450 kts 265°
2026-04-25 17:52 39.55702 0.58849 31777 ft 450 kts 265°
2026-04-25 17:52 39.55373 0.53501 32152 ft 450 kts 264°
2026-04-25 17:52 39.55123 0.49460 32446 ft 449 kts 264°
2026-04-25 17:53 39.54873 0.45432 32747 ft 448 kts 264°
2026-04-25 17:53 39.54623 0.41402 33050 ft 449 kts 264°
2026-04-25 17:53 39.54373 0.37383 33390 ft 447 kts 264°
2026-04-25 17:53 39.54121 0.33381 33685 ft 446 kts 264°
2026-04-25 17:54 39.53867 0.29374 33937 ft 446 kts 264°
2026-04-25 17:54 39.53610 0.25380 34166 ft 446 kts 264°
2026-04-25 17:54 39.53347 0.21380 34407 ft 446 kts 264°
2026-04-25 17:54 39.53086 0.17390 34692 ft 444 kts 264°
2026-04-25 17:55 39.52824 0.13407 34939 ft 443 kts 264°
2026-04-25 17:55 39.52562 0.09430 35163 ft 443 kts 264°
2026-04-25 17:55 39.52298 0.05454 35378 ft 443 kts 264°
2026-04-25 17:55 39.52036 0.01479 35602 ft 443 kts 264°
2026-04-25 17:56 39.51769 -0.02493 35840 ft 442 kts 264°
2026-04-25 17:56 39.51502 -0.06456 36026 ft 443 kts 263°
2026-04-25 17:56 39.51231 -0.10441 36079 ft 446 kts 263°
2026-04-25 17:57 39.50681 -0.18493 36112 ft 452 kts 264°
2026-04-25 17:57 39.50118 -0.26654 36111 ft 457 kts 263°
2026-04-25 17:58 39.49546 -0.34879 36111 ft 460 kts 263°
2026-04-25 17:58 39.48946 -0.43084 36087 ft 453 kts 260°
2026-04-25 17:58 39.48229 -0.47014 36102 ft 446 kts 249°
2026-04-25 17:59 39.47014 -0.50688 36105 ft 443 kts 240°
2026-04-25 17:59 39.43514 -0.57194 36108 ft 440 kts 230°
2026-04-25 18:00 39.39753 -0.63436 36109 ft 440 kts 230°
2026-04-25 18:00 39.36018 -0.69722 36098 ft 442 kts 231°
2026-04-25 18:01 39.32319 -0.76003 36104 ft 443 kts 231°
2026-04-25 18:01 39.28581 -0.82341 36110 ft 445 kts 231°
2026-04-25 18:02 39.24823 -0.88698 36103 ft 446 kts 231°
2026-04-25 18:02 39.21044 -0.95061 36099 ft 448 kts 230°
2026-04-25 18:03 39.17251 -1.01437 36110 ft 448 kts 232°
2026-04-25 18:03 39.13456 -1.07804 36099 ft 448 kts 232°
2026-04-25 18:04 39.09669 -1.14154 36095 ft 446 kts 232°
2026-04-25 18:04 39.05895 -1.20465 36096 ft 445 kts 231°
2026-04-25 18:05 39.02763 -1.25692 36099 ft 443 kts 231°
2026-04-25 18:05 38.98378 -1.33011 36100 ft 441 kts 231°
2026-04-25 18:06 38.94642 -1.39236 36102 ft 439 kts 231°
2026-04-25 18:06 38.90918 -1.45433 36098 ft 438 kts 231°
2026-04-25 18:07 38.87196 -1.51610 36103 ft 437 kts 231°
2026-04-25 18:07 38.83471 -1.57788 36103 ft 438 kts 231°
2026-04-25 18:08 38.79737 -1.63967 36104 ft 439 kts 231°
2026-04-25 18:08 38.75990 -1.70156 36105 ft 440 kts 231°
2026-04-25 18:09 38.72226 -1.76360 36103 ft 441 kts 231°
2026-04-25 18:09 38.68452 -1.82573 36106 ft 443 kts 231°
2026-04-25 18:10 38.64654 -1.88791 36102 ft 444 kts 231°
2026-04-25 18:10 38.60847 -1.95020 36103 ft 445 kts 231°
2026-04-25 18:11 38.57031 -2.01258 36101 ft 446 kts 231°
2026-04-25 18:11 38.53204 -2.07499 36095 ft 447 kts 231°
2026-04-25 18:12 38.49373 -2.13738 36103 ft 446 kts 231°
2026-04-25 18:12 38.45543 -2.19970 36098 ft 446 kts 231°
2026-04-25 18:13 38.41715 -2.26193 36103 ft 446 kts 231°
2026-04-25 18:13 38.37886 -2.32406 36092 ft 445 kts 230°
2026-04-25 18:14 38.31816 -2.41306 36100 ft 442 kts 224°
2026-04-25 18:14 38.27528 -2.46906 36099 ft 441 kts 224°
2026-04-25 18:15 38.23270 -2.52533 36102 ft 441 kts 225°
2026-04-25 18:15 38.19035 -2.58178 36099 ft 441 kts 225°
2026-04-25 18:16 38.14804 -2.63833 36090 ft 442 kts 225°
2026-04-25 18:17 38.08477 -2.72270 36081 ft 441 kts 225°
2026-04-25 18:17 38.04239 -2.77906 36078 ft 441 kts 225°
2026-04-25 18:18 37.99987 -2.83553 36085 ft 443 kts 225°
2026-04-25 18:18 37.95784 -2.89121 35800 ft 432 kts 225°
2026-04-25 18:18 37.93721 -2.91852 35475 ft 426 kts 225°
2026-04-25 18:19 37.91679 -2.94548 35082 ft 422 kts 224°
2026-04-25 18:19 37.89651 -2.97219 34702 ft 419 kts 224°
2026-04-25 18:19 37.87639 -2.99869 34321 ft 416 kts 224°
2026-04-25 18:19 37.85639 -3.02501 33931 ft 413 kts 224°
2026-04-25 18:20 37.83651 -3.05115 33555 ft 411 kts 224°
2026-04-25 18:20 37.81677 -3.07712 33183 ft 408 kts 224°
2026-04-25 18:20 37.79713 -3.10294 32793 ft 406 kts 224°
2026-04-25 18:20 37.77762 -3.12856 32421 ft 403 kts 223°
2026-04-25 18:21 37.75828 -3.15408 32052 ft 401 kts 226°
2026-04-25 18:21 37.74248 -3.18309 31652 ft 403 kts 243°
2026-04-25 18:21 37.73297 -3.21625 31294 ft 403 kts 257°
2026-04-25 18:21 37.72968 -3.25136 30923 ft 401 kts 265°
2026-04-25 18:22 37.72807 -3.28645 30567 ft 399 kts 266°
2026-04-25 18:22 37.72757 -3.29776 30447 ft 399 kts 266°
2026-04-25 18:22 37.72488 -3.35615 29851 ft 395 kts 265°
2026-04-25 18:22 37.72314 -3.39066 29488 ft 392 kts 265°
2026-04-25 18:23 37.72132 -3.42490 29129 ft 390 kts 265°
2026-04-25 18:23 37.71944 -3.45900 28760 ft 388 kts 265°
2026-04-25 18:23 37.71754 -3.49294 28395 ft 387 kts 265°
2026-04-25 18:23 37.71565 -3.52670 28029 ft 384 kts 265°
2026-04-25 18:24 37.71374 -3.56023 27672 ft 382 kts 265°
2026-04-25 18:24 37.71185 -3.59353 27311 ft 379 kts 265°
2026-04-25 18:24 37.70997 -3.62668 26945 ft 377 kts 265°
2026-04-25 18:24 37.70807 -3.65962 26595 ft 375 kts 265°
2026-04-25 18:25 37.70617 -3.69236 26239 ft 373 kts 265°
2026-04-25 18:25 37.70427 -3.72488 25880 ft 370 kts 265°
2026-04-25 18:25 37.70242 -3.75670 25528 ft 367 kts 265°
2026-04-25 18:25 37.70052 -3.78917 25177 ft 365 kts 265°
2026-04-25 18:26 37.69928 -3.81029 24939 ft 364 kts 265°
2026-04-25 18:26 37.69741 -3.84205 24600 ft 361 kts 265°
2026-04-25 18:26 37.69553 -3.87357 24250 ft 359 kts 265°
2026-04-25 18:26 37.69367 -3.90489 23907 ft 357 kts 266°
2026-04-25 18:27 37.69181 -3.93608 23560 ft 355 kts 266°
2026-04-25 18:27 37.68994 -3.96704 23222 ft 353 kts 266°
2026-04-25 18:27 37.68807 -3.99783 22878 ft 351 kts 266°
2026-04-25 18:27 37.68621 -4.02845 22542 ft 349 kts 266°
2026-04-25 18:28 37.68436 -4.05887 22207 ft 346 kts 266°
2026-04-25 18:28 37.68252 -4.08911 21877 ft 344 kts 266°
2026-04-25 18:28 37.68068 -4.11911 21543 ft 342 kts 266°
2026-04-25 18:29 37.67701 -4.17877 20885 ft 339 kts 266°
2026-04-25 18:29 37.67517 -4.20831 20564 ft 337 kts 266°
2026-04-25 18:30 37.66969 -4.29600 19580 ft 331 kts 266°
2026-04-25 18:30 37.66788 -4.32455 19268 ft 329 kts 266°
2026-04-25 18:30 37.66604 -4.35360 18947 ft 327 kts 266°
2026-04-25 18:30 37.66421 -4.38217 18629 ft 326 kts 266°
2026-04-25 18:31 37.66242 -4.41023 18315 ft 325 kts 266°
2026-04-25 18:31 37.66062 -4.43852 17999 ft 322 kts 266°
2026-04-25 18:31 37.65881 -4.46664 17690 ft 321 kts 266°
2026-04-25 18:31 37.65698 -4.49469 17379 ft 320 kts 266°
2026-04-25 18:32 37.65517 -4.52266 17061 ft 319 kts 266°
2026-04-25 18:32 37.65335 -4.55049 16750 ft 317 kts 266°
2026-04-25 18:32 37.65155 -4.57818 16441 ft 316 kts 266°
2026-04-25 18:32 37.64973 -4.60576 16134 ft 314 kts 266°
2026-04-25 18:33 37.64793 -4.63309 15834 ft 313 kts 265°
2026-04-25 18:33 37.64614 -4.66036 15531 ft 311 kts 265°
2026-04-25 18:33 37.64434 -4.68751 15228 ft 309 kts 265°
2026-04-25 18:33 37.64254 -4.71446 14922 ft 307 kts 265°
2026-04-25 18:34 37.64076 -4.74127 14625 ft 306 kts 265°
2026-04-25 18:34 37.63898 -4.76790 14327 ft 304 kts 265°
2026-04-25 18:34 37.63720 -4.79444 14030 ft 303 kts 265°
2026-04-25 18:34 37.63542 -4.82082 13737 ft 301 kts 265°
2026-04-25 18:35 37.63365 -4.84702 13435 ft 299 kts 265°
2026-04-25 18:35 37.63186 -4.87308 13160 ft 296 kts 265°
2026-04-25 18:35 37.63011 -4.89895 12839 ft 296 kts 265°
2026-04-25 18:35 37.62836 -4.92473 12552 ft 295 kts 265°
2026-04-25 18:36 37.62661 -4.95045 12268 ft 294 kts 265°
2026-04-25 18:36 37.62484 -4.97605 11984 ft 292 kts 265°
2026-04-25 18:36 37.62306 -5.00150 11683 ft 291 kts 265°
2026-04-25 18:36 37.62131 -5.02685 11396 ft 290 kts 265°
2026-04-25 18:37 37.61957 -5.05212 11113 ft 289 kts 265°
2026-04-25 18:37 37.61783 -5.07726 10824 ft 287 kts 265°
2026-04-25 18:37 37.61608 -5.10225 10540 ft 285 kts 265°
2026-04-25 18:37 37.61435 -5.12710 10259 ft 284 kts 265°
2026-04-25 18:38 37.61263 -5.15169 10091 ft 278 kts 265°
2026-04-25 18:38 37.61094 -5.17575 9860 ft 275 kts 265°
2026-04-25 18:38 37.60925 -5.19968 9590 ft 273 kts 265°
2026-04-25 18:38 37.60755 -5.22351 9328 ft 272 kts 265°
2026-04-25 18:39 37.60548 -5.24712 9048 ft 270 kts 256°
2026-04-25 18:39 37.59741 -5.26831 8773 ft 271 kts 235°
2026-04-25 18:39 37.58673 -5.28817 8490 ft 277 kts 235°
2026-04-25 18:39 37.57573 -5.30852 8188 ft 283 kts 235°
2026-04-25 18:40 37.56464 -5.32908 7871 ft 284 kts 235°
2026-04-25 18:40 37.55361 -5.34966 7568 ft 285 kts 236°
2026-04-25 18:40 37.54259 -5.37038 7248 ft 284 kts 236°
2026-04-25 18:40 37.53155 -5.39097 6939 ft 283 kts 235°
2026-04-25 18:41 37.52055 -5.41150 6631 ft 282 kts 235°
2026-04-25 18:41 37.50962 -5.43196 6319 ft 281 kts 235°
2026-04-25 18:41 37.49872 -5.45238 6010 ft 280 kts 235°
2026-04-25 18:41 37.48783 -5.47272 5702 ft 279 kts 235°
2026-04-25 18:42 37.47700 -5.49298 5388 ft 279 kts 236°
2026-04-25 18:42 37.46986 -5.50635 5201 ft 278 kts 235°
2026-04-25 18:42 37.45543 -5.53333 4795 ft 277 kts 235°
2026-04-25 18:42 37.44469 -5.55340 4497 ft 276 kts 235°
2026-04-25 18:43 37.43398 -5.57340 4196 ft 275 kts 235°
2026-04-25 18:43 37.42338 -5.59335 3895 ft 273 kts 239°
2026-04-25 18:43 37.41797 -5.61585 3555 ft 269 kts 269°
2026-04-25 18:43 37.41896 -5.63893 3313 ft 261 kts 271°
2026-04-25 18:44 37.41916 -5.66146 3023 ft 254 kts 268°
2026-04-25 18:44 37.41891 -5.68353 2760 ft 252 kts 268°
2026-04-25 18:44 37.41874 -5.70515 2662 ft 240 kts 268°
2026-04-25 18:44 37.41864 -5.72580 2421 ft 232 kts 268°
2026-04-25 18:45 37.41855 -5.74583 2125 ft 226 kts 268°
2026-04-25 18:45 37.41846 -5.76529 1821 ft 219 kts 268°
2026-04-25 18:45 37.41837 -5.78403 1530 ft 208 kts 268°
2026-04-25 18:45 37.41830 -5.80160 1277 ft 195 kts 268°
2026-04-25 18:46 37.41821 -5.81795 1036 ft 179 kts 268°
2026-04-25 18:46 37.41817 -5.83289 801 ft 163 kts 268°
2026-04-25 18:46 37.41808 -5.84665 620 ft 153 kts 268°
2026-04-25 18:46 37.41805 -5.86027 403 ft 153 kts 268°
2026-04-25 18:47 37.41801 -5.87334 184 ft 144 kts 270°
2026-04-25 18:47 37.41798 -5.88519 110 ft 122 kts 269°
2026-04-25 18:47 37.41793 -5.89395 104 ft 79 kts 269°
2026-04-25 18:47 37.41820 -5.89747 104 ft 23 kts 294°
2026-04-25 18:48 37.41884 -5.89822 105 ft 7 kts 333°
2026-04-25 18:48 37.41924 -5.89844 104 ft 6 kts 337°
2026-04-25 18:48 37.41963 -5.89864 104 ft 6 kts 339°
2026-04-25 18:48 37.42002 -5.89883 104 ft 6 kts 336°
2026-04-25 18:49 37.42040 -5.89905 104 ft 6 kts 334°
2026-04-25 18:49 37.42077 -5.89925 105 ft 6 kts 342°
2026-04-25 18:49 37.42117 -5.89926 104 ft 6 kts 16°
2026-04-25 18:49 37.42154 -5.89893 103 ft 7 kts 42°
2026-04-25 18:50 37.42206 -5.89882 101 ft 9 kts 346°
2026-04-25 18:50 37.42248 -5.89897 99 ft 3 kts 346°
2026-04-25 18:50 37.42253 -5.89898 99 ft 0 kts 344°